Hourly Data Report for September 23, 2017

All times are specified in Local Standard Time (LST). Add 1 hour to adjust for Daylight Saving Time where and when it is observed.

ARVIAT A
NUNAVUT

61°05'38.000" N
94°04'18.000" W
10.40 m
2300427
71174
YEK

Download Data

Hourly Data (September 2017)
Hourly Data Report for September 23, 2017
Temp Definition
°C
Dew Point Temp Definition
°C
Rel Hum Definition
%
Wind Dir Definition
10's deg

Wind Spd Definition
km/h
Visibility Definition
km
Stn Press Definition
kPa
Hmdx Definition


Wind Chill Definition


Weather Definition


TIME
00:00 Legend Double Dagger 1.5 -1.1 83 36 11 16.1 102.14     LegendNANA
01:00 Legend Double Dagger 0.0 -1.1 93 32 11 16.1 102.18   -4 LegendNANA
02:00 Legend Double Dagger 0.1 -1.4 90 33 13 16.1 102.16     LegendNANA
03:00 Legend Double Dagger 0.2 -1.3 90 33 13 16.1 102.17     LegendNANA
04:00 Legend Double Dagger 1.1 -1.5 83 34 15 16.1 102.19     LegendNANA
05:00 Legend Double Dagger 0.2 -1.4 89 31 11 16.1 102.24     LegendNANA
06:00 Legend Double Dagger 1.2 -0.1 91 33 11 16.1 102.25     LegendNANA
07:00 Legend Double Dagger 1.2 0.0 92 36 11 16.1 102.22     LegendNANA
08:00 Legend Double Dagger 1.3 0.1 92 35 11 16.1 102.24     LegendNANA
09:00 Legend Double Dagger 1.0 0.0 93 33 11 16.1 102.31     LegendNANA
10:00 Legend Double Dagger 1.8 0.5 91 35 17 16.1 102.28     LegendNANA
11:00 Legend Double Dagger 3.1 0.8 85 36 15 16.1 102.27     LegendNANA
12:00 Legend Double Dagger 3.7 0.2 78 36 13 16.1 102.31     LegendNANA
13:00 Legend Double Dagger 4.6 0.2 73 1 11 16.1 102.31     LegendNANA
14:00 Legend Double Dagger 4.9 -0.2 70 3 13 16.1 102.29     LegendNANA
15:00 Legend Double Dagger 5.1 -0.4 68 4 15 16.1 102.29     LegendNANA
16:00 Legend Double Dagger 4.8 -0.2 70 2 13 16.1 102.31     LegendNANA
17:00 Legend Double Dagger 4.8 -0.5 68 3 11 16.1 102.33     LegendNANA
18:00 Legend Double Dagger 4.7 -0.7 68 2 8 16.1 102.32     LegendNANA
19:00 Legend Double Dagger 4.4 -0.4 71 34 8 16.1 102.34     LegendNANA
20:00 Legend Double Dagger 3.9 -0.2 75 35 15 16.1 102.37     LegendNANA
21:00 Legend Double Dagger 3.6 0.1 78 35 17 16.1 102.38     LegendNANA
22:00 Legend Double Dagger 3.1 -0.5 77 34 17 16.1 102.36     LegendNANA
23:00 Legend Double Dagger 3.0 -0.9 76 1 11 16.1 102.38     LegendNANA

Notes on Data Quality.

Legend

  • E = Estimated
  • M = Missing
  • NA = Not Available
  • ‡ = Partner data that is not subject to review by the National Climate Archives
Date modified: